^^
B2 Weather Station Historical Data
Daily Summary for December 29, 2018 Units:  Metric    English   Both
Daily Weekly Monthly Yearly Custom
  High: Low: Average:
Temperature: -2.4 °C -4.5 °C -2.9 °C
Dew Point: -3.3 °C -6.7 °C -4.3 °C
Humidity: 94% 85% 91%
Wind Speed: 27.8km/h 1.9km/h 12.6km/h
Wind Gust: 18.5km/h - -
Wind- - West
Pressure: 1028.7 hPa 1022.2 hPa -
Precipitation: 0 mm    
Historical Graphs
 
 
Tabular Data for December 29, 2018
Time Temperature Dew Point Pressure Wind Wind Speed Wind Gust Humidity Rainfall Rate (Hourly) solar
00:04 -2.7 °C -4.1 °C 1022.2 hPa WNW 18.5 km/h 12.7 km/h 90% 0 mm 0.00 W/m2
00:09 -2.8 °C -4.2 °C 1022.6 hPa West 18.5 km/h 9 km/h 90% 0 mm 0.00 W/m2
00:14 -2.8 °C -4.2 °C 1022.6 hPa West 18.5 km/h 12.2 km/h 90% 0 mm 0.00 W/m2
00:19 -2.8 °C -4.2 °C 1022.6 hPa WSW 16.7 km/h 8 km/h 90% 0 mm 0.00 W/m2
00:24 -2.8 °C -4.2 °C 1022.6 hPa West 20.4 km/h 13 km/h 90% 0 mm 0.00 W/m2
00:29 -2.8 °C -4.2 °C 1022.6 hPa WSW 17.7 km/h 9.5 km/h 90% 0 mm 0.00 W/m2
00:34 -2.8 °C -4.2 °C 1022.6 hPa North 16.7 km/h 12.9 km/h 90% 0 mm 0.00 W/m2
00:39 -2.8 °C -4.2 °C 1022.9 hPa WSW 18.5 km/h 10.8 km/h 90% 0 mm 0.00 W/m2
00:44 -2.8 °C -4.4 °C 1022.6 hPa West 18.5 km/h 11.6 km/h 89% 0 mm 0.00 W/m2
00:49 -2.8 °C -4.2 °C 1022.9 hPa SW 14.8 km/h 11.1 km/h 90% 0 mm 0.00 W/m2
00:54 -2.8 °C -4.4 °C 1022.9 hPa North 19.3 km/h 11.4 km/h 89% 0 mm 0.00 W/m2
00:59 -2.8 °C -4.4 °C 1022.9 hPa SW 16.7 km/h 7.7 km/h 89% 0 mm 0.00 W/m2
01:04 -2.8 °C -4.4 °C 1022.9 hPa WNW 14.8 km/h 7.2 km/h 89% 0 mm 0.00 W/m2
01:09 -2.8 °C -4.4 °C 1022.9 hPa North 16.7 km/h 9.2 km/h 89% 0 mm 0.00 W/m2
01:14 -2.8 °C -4.4 °C 1022.9 hPa North 14.8 km/h 8.2 km/h 89% 0 mm 0.00 W/m2
01:19 -2.8 °C -4.4 °C 1022.9 hPa North 18.5 km/h 10.9 km/h 89% 0 mm 0.00 W/m2
01:24 -2.8 °C -4.4 °C 1023.2 hPa WSW 18.5 km/h 9.7 km/h 89% 0 mm 0.00 W/m2
01:29 -2.8 °C -4.4 °C 1023.2 hPa North 12.9 km/h 12.1 km/h 89% 0 mm 0.00 W/m2
01:34 -2.9 °C -4.4 °C 1023.2 hPa SSW 16.7 km/h 9.3 km/h 89% 0 mm 0.00 W/m2
01:39 -2.8 °C -4.4 °C 1023.2 hPa WSW 22.2 km/h 13.5 km/h 89% 0 mm 0.00 W/m2
01:44 -2.8 °C -4.4 °C 1023.6 hPa WSW 11.1 km/h 9.5 km/h 89% 0 mm 0.00 W/m2
01:49 -2.8 °C -4.4 °C 1023.6 hPa WSW 16.7 km/h 9.2 km/h 89% 0 mm 0.00 W/m2
01:54 -2.9 °C -4.4 °C 1023.9 hPa North 14.8 km/h 5.6 km/h 89% 0 mm 0.00 W/m2
01:59 -2.8 °C -4.4 °C 1023.9 hPa West 14.8 km/h 7.7 km/h 89% 0 mm 0.00 W/m2
02:04 -2.8 °C -4.4 °C 1023.9 hPa NW 16.7 km/h 10.8 km/h 89% 0 mm 0.00 W/m2
02:09 -2.8 °C -4.3 °C 1024.3 hPa SW 16.7 km/h 9.2 km/h 89% 0 mm 0.00 W/m2
02:14 -2.8 °C -4.3 °C 1024.3 hPa North 17.7 km/h 7.7 km/h 89% 0 mm 0.00 W/m2
02:19 -2.8 °C -4.3 °C 1024.3 hPa WNW 18.5 km/h 6.9 km/h 89% 0 mm 0.00 W/m2
02:24 -2.8 °C -4.3 °C 1024.3 hPa West 14.8 km/h 6 km/h 89% 0 mm 0.00 W/m2
02:29 -2.7 °C -4.3 °C 1024.3 hPa WNW 20.9 km/h 7.1 km/h 89% 0 mm 0.00 W/m2
02:34 -2.7 °C -4.2 °C 1024.3 hPa WSW 13 km/h 3.7 km/h 89% 0 mm 0.00 W/m2
02:39 -2.7 °C -4.2 °C 1024.3 hPa North 20.4 km/h 9.2 km/h 89% 0 mm 0.00 W/m2
02:44 -2.7 °C -4.4 °C 1024.3 hPa WNW 16.7 km/h 9.7 km/h 88% 0 mm 0.00 W/m2
02:49 -2.8 °C -4.5 °C 1024.3 hPa WNW 20.4 km/h 10.8 km/h 88% 0 mm 0.00 W/m2
02:54 -2.8 °C -4.5 °C 1024.3 hPa North 18.5 km/h 10.9 km/h 88% 0 mm 0.00 W/m2
02:59 -2.8 °C -4.5 °C 1024.3 hPa West 9.3 km/h 6.3 km/h 88% 0 mm 0.00 W/m2
03:04 -2.8 °C -4.3 °C 1024.3 hPa WSW 11.1 km/h 7.2 km/h 89% 0 mm 0.00 W/m2
03:09 -2.8 °C -4.5 °C 1024.3 hPa North 11.1 km/h 8.9 km/h 88% 0 mm 0.00 W/m2
03:14 -2.8 °C -4.3 °C 1024.6 hPa North 16.7 km/h 5.6 km/h 89% 0 mm 0.00 W/m2
03:19 -2.8 °C -4.5 °C 1024.6 hPa WSW 11.1 km/h 7.2 km/h 88% 0 mm 0.00 W/m2
03:24 -2.8 °C -4.3 °C 1024.6 hPa West 16.7 km/h 6.3 km/h 89% 0 mm 0.00 W/m2
03:29 -2.8 °C -4.3 °C 1024.6 hPa WSW 16.1 km/h 7.4 km/h 89% 0 mm 0.00 W/m2
03:34 -2.8 °C -4.3 °C 1024.9 hPa WNW 14.8 km/h 9.2 km/h 89% 0 mm 0.00 W/m2
03:39 -2.8 °C -4.3 °C 1024.9 hPa West 14.8 km/h 5.6 km/h 89% 0 mm 0.00 W/m2
03:44 -2.8 °C -4.3 °C 1024.9 hPa North 14.8 km/h 10.1 km/h 89% 0 mm 0.00 W/m2
03:49 -2.8 °C -4.3 °C 1024.9 hPa North 12.9 km/h 7.9 km/h 89% 0 mm 0.00 W/m2
03:54 -2.8 °C -4.3 °C 1024.9 hPa North 14.8 km/h 8.2 km/h 89% 0 mm 0.00 W/m2
03:59 -2.8 °C -4.3 °C 1024.9 hPa West 11.1 km/h 8 km/h 89% 0 mm 0.00 W/m2
04:04 -2.8 °C -4.3 °C 1024.9 hPa WSW 9.3 km/h 5.6 km/h 89% 0 mm 0.00 W/m2
04:09 -2.8 °C -4.3 °C 1024.9 hPa WNW 16.7 km/h 8.5 km/h 89% 0 mm 0.00 W/m2
04:14 -2.8 °C -4.3 °C 1024.9 hPa WNW 18.5 km/h 11.7 km/h 89% 0 mm 0.00 W/m2
04:19 -2.8 °C -4.3 °C 1024.9 hPa WSW 16.7 km/h 11.1 km/h 89% 0 mm 0.00 W/m2
04:24 -2.8 °C -4.3 °C 1024.9 hPa WNW 14.5 km/h 7.7 km/h 89% 0 mm 0.00 W/m2
04:29 -2.8 °C -4.3 °C 1024.9 hPa North 7.4 km/h 6.1 km/h 89% 0 mm 0.00 W/m2
04:34 -2.8 °C -4.4 °C 1024.9 hPa WSW 18.5 km/h 7.6 km/h 89% 0 mm 0.00 W/m2
04:39 -2.8 °C -4.2 °C 1024.9 hPa WNW 11.1 km/h 6.4 km/h 90% 0 mm 0.00 W/m2
04:44 -2.8 °C -4.2 °C 1025.3 hPa WNW 13 km/h 7.4 km/h 90% 0 mm 0.00 W/m2
04:49 -2.8 °C -4.2 °C 1025.3 hPa West 11.1 km/h 4.8 km/h 90% 0 mm 0.00 W/m2
04:54 -2.8 °C -4.2 °C 1025.3 hPa WSW 11.1 km/h 5.5 km/h 90% 0 mm 0.00 W/m2
04:59 -2.9 °C -4.3 °C 1025.6 hPa North 13 km/h 6.1 km/h 90% 0 mm 0.00 W/m2
05:04 -2.9 °C -4.2 °C 1025.6 hPa WNW 12.9 km/h 6.3 km/h 91% 0 mm 0.00 W/m2
05:09 -2.9 °C -4.2 °C 1026 hPa SW 13 km/h 9.7 km/h 91% 0 mm 0.00 W/m2
05:14 -2.9 °C -4.2 °C 1026 hPa West 14.8 km/h 5.3 km/h 91% 0 mm 0.00 W/m2
05:19 -2.9 °C -4.2 °C 1026 hPa North 11.3 km/h 6.6 km/h 91% 0 mm 0.00 W/m2
05:24 -2.9 °C -4.2 °C 1026.3 hPa West 11.1 km/h 6.1 km/h 91% 0 mm 0.00 W/m2
05:29 -2.8 °C -4.1 °C 1026.3 hPa WSW 9.3 km/h 6.8 km/h 91% 0 mm 0.00 W/m2
05:34 -2.8 °C -4.1 °C 1026.3 hPa North 11.1 km/h 3.5 km/h 91% 0 mm 0.00 W/m2
05:39 -2.8 °C -4.1 °C 1026.3 hPa WSW 11.1 km/h 5.5 km/h 91% 0 mm 0.00 W/m2
05:44 -2.8 °C -3.9 °C 1026.6 hPa North 9.3 km/h 7.9 km/h 92% 0 mm 0.00 W/m2
05:49 -2.9 °C -4 °C 1026.6 hPa North 13 km/h 7.7 km/h 92% 0 mm 0.00 W/m2
05:54 -2.9 °C -4.1 °C 1026.6 hPa WNW 7.4 km/h 4.5 km/h 92% 0 mm 0.00 W/m2
05:59 -2.9 °C -4.1 °C 1027 hPa North 7.4 km/h 4.8 km/h 92% 0 mm 0.00 W/m2
06:04 -3 °C -4.1 °C 1027 hPa North 16.7 km/h 8.2 km/h 92% 0 mm 0.00 W/m2
06:09 -3 °C -4.1 °C 1027 hPa West 14.8 km/h 4.3 km/h 92% 0 mm 0.00 W/m2
06:14 -3 °C -4.1 °C 1027 hPa WSW 14.8 km/h 6.8 km/h 92% 0 mm 0.00 W/m2
06:19 -3.1 °C -4 °C 1027.3 hPa SW 11.1 km/h 7.1 km/h 93% 0 mm 0.00 W/m2
06:24 -3.1 °C -4.2 °C 1027.3 hPa West 7.4 km/h 3.7 km/h 92% 0 mm 0.00 W/m2
06:29 -3.1 °C -4 °C 1027.3 hPa WSW 14.8 km/h 10.1 km/h 93% 0 mm 0.00 W/m2
06:34 -3.1 °C -4 °C 1027.3 hPa WSW 18.5 km/h 10.5 km/h 93% 0 mm 0.00 W/m2
06:39 -3.1 °C -4 °C 1027.3 hPa North 11.1 km/h 8.5 km/h 93% 0 mm 0.00 W/m2
06:44 -3.1 °C -4 °C 1027.7 hPa WSW 7.4 km/h 3.1 km/h 93% 0 mm 0.00 W/m2
06:49 -3.1 °C -4 °C 1027.7 hPa SW 12.9 km/h 7.7 km/h 93% 0 mm 0.00 W/m2
06:54 -3.1 °C -4.1 °C 1027.7 hPa WSW 14.8 km/h 9.3 km/h 93% 0 mm 0.00 W/m2
06:59 -3.2 °C -4.1 °C 1027.7 hPa North 11.3 km/h 7.6 km/h 93% 0 mm 0.00 W/m2
07:04 -3.2 °C -4.1 °C 1027.7 hPa West 14.8 km/h 7.9 km/h 93% 0 mm 0.00 W/m2
07:09 -3.2 °C -4.2 °C 1028 hPa West 16.7 km/h 9.3 km/h 93% 0 mm 0.00 W/m2
07:14 -3.2 °C -4.2 °C 1028 hPa West 13 km/h 10.1 km/h 93% 0 mm 0.00 W/m2
07:19 -3.2 °C -4.2 °C 1028 hPa SW 14.8 km/h 9.7 km/h 93% 0 mm 0.00 W/m2
07:24 -3.3 °C -4.2 °C 1028 hPa WNW 18.5 km/h 8.9 km/h 93% 0 mm 0.00 W/m2
07:29 -3.3 °C -4.2 °C 1028 hPa North 7.4 km/h 5.8 km/h 93% 0 mm 0.00 W/m2
07:34 -3.2 °C -4.2 °C 1028 hPa North 18.5 km/h 9.5 km/h 93% 0 mm 0.00 W/m2
07:39 -3.3 °C -4.2 °C 1028.3 hPa North 13 km/h 9.3 km/h 93% 0 mm 0.00 W/m2
07:44 -3.3 °C -4.1 °C 1028.3 hPa West 13 km/h 8.5 km/h 94% 0 mm 5.00 W/m2
07:49 -3.3 °C -4.1 °C 1028.3 hPa North 14.8 km/h 8 km/h 94% 0 mm 5.00 W/m2
07:54 -3.2 °C -4.1 °C 1028.3 hPa WSW 12.9 km/h 10.9 km/h 94% 0 mm 11.00 W/m2
07:59 -3.3 °C -4.1 °C 1028.3 hPa North 16.7 km/h 8 km/h 94% 0 mm 12.00 W/m2
08:04 -3.3 °C -4.1 °C 1028.3 hPa SW 9.7 km/h 5.3 km/h 94% 0 mm 14.00 W/m2
08:09 -3.2 °C -4.1 °C 1028.3 hPa WSW 7.4 km/h 6.8 km/h 94% 0 mm 19.00 W/m2
08:14 -3.2 °C -4.1 °C 1028.7 hPa West 11.1 km/h 7.6 km/h 94% 0 mm 19.00 W/m2
08:19 -3.2 °C -4.1 °C 1028.7 hPa North 7.4 km/h 6.1 km/h 94% 0 mm 23.00 W/m2
08:24 -3.2 °C -4.1 °C 1028.7 hPa WSW 9.3 km/h 3.1 km/h 94% 0 mm 26.00 W/m2
08:29 -3.2 °C -4.1 °C 1028.7 hPa WSW 9.3 km/h 4.8 km/h 94% 0 mm 28.00 W/m2
08:34 -3.2 °C -4.1 °C 1028.7 hPa WNW 9.3 km/h 5.5 km/h 94% 0 mm 30.00 W/m2
08:39 -3.2 °C -4 °C 1028.7 hPa WSW 1.9 km/h 0.6 km/h 94% 0 mm 32.00 W/m2
08:44 -3.2 °C -4 °C 1028.7 hPa WNW 8 km/h 5.3 km/h 94% 0 mm 33.00 W/m2
08:49 -3.2 °C -4 °C 1028.7 hPa North 11.1 km/h 2.6 km/h 94% 0 mm 39.00 W/m2
08:54 -3.1 °C -3.9 °C 1028.7 hPa WNW 5.6 km/h 2.7 km/h 94% 0 mm 46.00 W/m2
08:59 -3.1 °C -3.9 °C 1028.3 hPa WSW 5.6 km/h 3.7 km/h 94% 0 mm 47.00 W/m2
09:04 -3.1 °C -3.9 °C 1028.3 hPa WSW 7.4 km/h 6 km/h 94% 0 mm 53.00 W/m2
09:09 -3.1 °C -3.9 °C 1028 hPa WNW 3.7 km/h 3.1 km/h 94% 0 mm 56.00 W/m2
09:14 -3.1 °C -3.9 °C 1028 hPa WNW 1.9 km/h   94% 0 mm 65.00 W/m2
09:19 -3 °C -3.8 °C 1028 hPa WNW 3.7 km/h 0.8 km/h 94% 0 mm 69.00 W/m2
09:24 -2.9 °C -3.8 °C 1028 hPa West 3.7 km/h 1.1 km/h 94% 0 mm 70.00 W/m2
09:29 -2.8 °C -3.7 °C 1028 hPa West 5.6 km/h 0.5 km/h 94% 0 mm 74.00 W/m2
09:34 -2.8 °C -3.6 °C 1028.3 hPa WSW 5.6 km/h 1.8 km/h 94% 0 mm 63.00 W/m2
09:39 -2.8 °C -3.6 °C 1028.3 hPa West 3.7 km/h 0.3 km/h 94% 0 mm 63.00 W/m2
09:44 -2.7 °C -3.6 °C 1028.3 hPa West 5.6 km/h 1.4 km/h 94% 0 mm 63.00 W/m2
09:49 -2.7 °C -3.5 °C 1028.3 hPa North 5.6 km/h 2.9 km/h 94% 0 mm 62.00 W/m2
09:54 -2.7 °C -3.5 °C 1028.3 hPa WSW 5.6 km/h 3.5 km/h 94% 0 mm 62.00 W/m2
09:59 -2.7 °C -3.5 °C 1028.3 hPa North 5.6 km/h 2.4 km/h 94% 0 mm 62.00 W/m2
10:04 -2.6 °C -3.4 °C 1028.3 hPa SW 5.6 km/h 4.3 km/h 94% 0 mm 49.00 W/m2
10:09 -2.7 °C -3.5 °C 1028.7 hPa WSW 6.4 km/h 4.7 km/h 94% 0 mm 51.00 W/m2
10:14 -2.7 °C -3.5 °C 1028.7 hPa SW 6.4 km/h 4.7 km/h 94% 0 mm 47.00 W/m2
10:19 -2.7 °C -3.6 °C 1028.7 hPa SW 7.4 km/h 6.8 km/h 94% 0 mm 44.00 W/m2
10:24 -2.8 °C -3.6 °C 1028.7 hPa SW 8 km/h 7.9 km/h 94% 0 mm 42.00 W/m2
10:29 -2.8 °C -3.6 °C 1028.7 hPa West 3.7 km/h 3.2 km/h 94% 0 mm 40.00 W/m2
10:34 -2.8 °C -3.6 °C 1028.3 hPa WSW 9.3 km/h 5.8 km/h 94% 0 mm 44.00 W/m2
10:39 -2.8 °C -3.6 °C 1028 hPa North 9.3 km/h 5.1 km/h 94% 0 mm 51.00 W/m2
10:44 -2.8 °C -3.7 °C 1028 hPa SW 6.4 km/h 4 km/h 94% 0 mm 58.00 W/m2
10:49 -2.8 °C -3.7 °C 1028 hPa WSW 7.4 km/h 4.8 km/h 94% 0 mm 58.00 W/m2
10:54 -2.8 °C -3.6 °C 1028 hPa WSW 9.3 km/h 4.3 km/h 94% 0 mm 53.00 W/m2
10:59 -2.8 °C -3.6 °C 1028 hPa North 9.3 km/h 5.8 km/h 94% 0 mm 54.00 W/m2
11:04 -2.7 °C -3.6 °C 1027.7 hPa WSW 5.6 km/h 5.6 km/h 94% 0 mm 58.00 W/m2
11:09 -2.8 °C -3.6 °C 1027.7 hPa WSW 11.1 km/h 8 km/h 94% 0 mm 63.00 W/m2
11:14 -2.8 °C -3.7 °C 1027.7 hPa WSW 9.3 km/h 6.4 km/h 94% 0 mm 63.00 W/m2
11:19 -2.8 °C -3.6 °C 1027.7 hPa North 9.3 km/h 4.3 km/h 94% 0 mm 65.00 W/m2
11:24 -2.8 °C -3.6 °C 1027.7 hPa WSW 7.4 km/h 5.1 km/h 94% 0 mm 69.00 W/m2
11:29 -2.7 °C -3.6 °C 1027.3 hPa WNW 6.4 km/h 2.6 km/h 94% 0 mm 77.00 W/m2
11:34 -2.8 °C -3.6 °C 1027.3 hPa WSW 7.4 km/h 8.2 km/h 94% 0 mm 81.00 W/m2
11:39 -2.8 °C -3.6 °C 1027.3 hPa SW 9.3 km/h 5.3 km/h 94% 0 mm 76.00 W/m2
11:44 -2.7 °C -3.6 °C 1027.3 hPa SW 9.3 km/h 4.5 km/h 94% 0 mm 79.00 W/m2
11:49 -2.8 °C -3.6 °C 1027.3 hPa West 9.3 km/h 5.6 km/h 94% 0 mm 77.00 W/m2
11:54 -2.8 °C -3.6 °C 1027 hPa West 7.4 km/h 2.4 km/h 94% 0 mm 84.00 W/m2
11:59 -2.7 °C -3.6 °C 1027 hPa SW 11.1 km/h 6.8 km/h 94% 0 mm 79.00 W/m2
12:04 -2.7 °C -3.6 °C 1027 hPa SW 8 km/h 7.2 km/h 94% 0 mm 77.00 W/m2
12:09 -2.8 °C -3.6 °C 1027 hPa WSW 11.1 km/h 3.9 km/h 94% 0 mm 83.00 W/m2
12:14 -2.8 °C -3.6 °C 1027.3 hPa West 7.4 km/h 5.3 km/h 94% 0 mm 70.00 W/m2
12:19 -2.7 °C -3.6 °C 1027.3 hPa North 8 km/h 6.6 km/h 94% 0 mm 65.00 W/m2
12:24 -2.7 °C -3.6 °C 1027 hPa WSW 9.3 km/h 5.3 km/h 94% 0 mm 65.00 W/m2
12:29 -2.7 °C -3.6 °C 1027 hPa SW 7.4 km/h 6 km/h 94% 0 mm 72.00 W/m2
12:34 -2.7 °C -3.5 °C 1027 hPa SW 13 km/h 4.5 km/h 94% 0 mm 76.00 W/m2
12:39 -2.8 °C -3.6 °C 1027 hPa WSW 13 km/h 6.3 km/h 94% 0 mm 70.00 W/m2
12:44 -2.8 °C -3.6 °C 1027.3 hPa SW 9.3 km/h 6 km/h 94% 0 mm 72.00 W/m2
12:49 -2.7 °C -3.6 °C 1027 hPa SW 9.3 km/h 6.8 km/h 94% 0 mm 65.00 W/m2
12:54 -2.7 °C -3.6 °C 1027 hPa WSW 9.3 km/h 3.5 km/h 94% 0 mm 76.00 W/m2
12:59 -2.7 °C -3.6 °C 1026.6 hPa WSW 8 km/h 5.6 km/h 94% 0 mm 81.00 W/m2
13:04 -2.7 °C -3.5 °C 1026.6 hPa North 5.6 km/h 3.9 km/h 94% 0 mm 79.00 W/m2
13:09 -2.7 °C -3.5 °C 1026.6 hPa WSW 7.4 km/h 2.7 km/h 94% 0 mm 70.00 W/m2
13:14 -2.7 °C -3.5 °C 1026.6 hPa WSW 14.8 km/h 6.6 km/h 94% 0 mm 72.00 W/m2
13:19 -2.7 °C -3.5 °C 1026.6 hPa SW 9.3 km/h 6.8 km/h 94% 0 mm 74.00 W/m2
13:24 -2.7 °C -3.5 °C 1026.6 hPa SW 9.3 km/h 5.5 km/h 94% 0 mm 79.00 W/m2
13:29 -2.6 °C -3.4 °C 1026.6 hPa SW 7.4 km/h 5.1 km/h 94% 0 mm 74.00 W/m2
13:34 -2.6 °C -3.4 °C 1026.6 hPa WSW 11.1 km/h 4 km/h 94% 0 mm 49.00 W/m2
13:39 -2.5 °C -3.3 °C 1026.6 hPa SW 7.4 km/h 2.9 km/h 94% 0 mm 76.00 W/m2
13:44 -2.5 °C -3.3 °C 1026.3 hPa North 8 km/h 2.1 km/h 94% 0 mm 74.00 W/m2
13:49 -2.6 °C -3.4 °C 1026.3 hPa SW 7.4 km/h 5.5 km/h 94% 0 mm 47.00 W/m2
13:54 -2.6 °C -3.4 °C 1026.3 hPa SW 5.6 km/h 3.7 km/h 94% 0 mm 39.00 W/m2
13:59 -2.6 °C -3.4 °C 1026.3 hPa North 3.7 km/h 2.7 km/h 94% 0 mm 39.00 W/m2
14:04 -2.6 °C -3.4 °C 1026.3 hPa West 5.6 km/h 3.5 km/h 94% 0 mm 33.00 W/m2
14:09 -2.6 °C -3.4 °C 1026.3 hPa West 5.6 km/h 0.3 km/h 94% 0 mm 35.00 W/m2
14:14 -2.6 °C -3.4 °C 1026.3 hPa North 9.3 km/h 3.4 km/h 94% 0 mm 42.00 W/m2
14:19 -2.6 °C -3.4 °C 1026.3 hPa North 5.6 km/h 6.4 km/h 94% 0 mm 47.00 W/m2
14:24 -2.6 °C -3.6 °C 1026.3 hPa SSW 5.6 km/h 1.3 km/h 93% 0 mm 40.00 W/m2
14:29 -2.6 °C -3.6 °C 1026.3 hPa SW 5.6 km/h 5.5 km/h 93% 0 mm 39.00 W/m2
14:34 -2.6 °C -3.6 °C 1026.3 hPa SW 5.6 km/h 3.1 km/h 93% 0 mm 30.00 W/m2
14:39 -2.6 °C -3.6 °C 1026.3 hPa WSW 11.1 km/h 7.2 km/h 93% 0 mm 35.00 W/m2
14:44 -2.6 °C -3.6 °C 1026.3 hPa WSW 7.4 km/h 3.5 km/h 93% 0 mm 28.00 W/m2
14:49 -2.6 °C -3.6 °C 1026.3 hPa WSW 11.1 km/h 3.4 km/h 93% 0 mm 23.00 W/m2
14:54 -2.6 °C -3.6 °C 1026.3 hPa SSW 8 km/h 5 km/h 93% 0 mm 23.00 W/m2
14:59 -2.6 °C -3.6 °C 1026.6 hPa South 5.6 km/h 6.1 km/h 93% 0 mm 21.00 W/m2
15:04 -2.6 °C -3.6 °C 1026.6 hPa SW 9.7 km/h 6.1 km/h 93% 0 mm 16.00 W/m2
15:09 -2.7 °C -3.7 °C 1026.3 hPa SSW 14.8 km/h 8.9 km/h 93% 0 mm 18.00 W/m2
15:14 -2.6 °C -3.6 °C 1026.3 hPa WSW 9.3 km/h 4.5 km/h 93% 0 mm 14.00 W/m2
15:19 -2.7 °C -3.7 °C 1026.3 hPa SW 16.7 km/h 3.9 km/h 93% 0 mm 12.00 W/m2
15:24 -2.7 °C -3.7 °C 1026 hPa South 5.6 km/h 3.2 km/h 93% 0 mm 12.00 W/m2
15:29 -2.6 °C -3.6 °C 1026 hPa SW 7.4 km/h 4.2 km/h 93% 0 mm 16.00 W/m2
15:34 -2.7 °C -3.7 °C 1026 hPa SSW 9.3 km/h 2.7 km/h 93% 0 mm 14.00 W/m2
15:39 -2.6 °C -3.6 °C 1025.6 hPa SSW 8 km/h 3.4 km/h 93% 0 mm 12.00 W/m2
15:44 -2.6 °C -3.6 °C 1026 hPa South 11.3 km/h 6.3 km/h 93% 0 mm 14.00 W/m2
15:49 -2.6 °C -3.6 °C 1025.6 hPa SSW 5.6 km/h 0.8 km/h 93% 0 mm 11.00 W/m2
15:54 -2.6 °C -3.7 °C 1025.3 hPa SW 9.7 km/h 4.3 km/h 92% 0 mm 7.00 W/m2
15:59 -2.6 °C -3.7 °C 1025.3 hPa SSW 7.4 km/h 3.9 km/h 92% 0 mm 7.00 W/m2
16:04 -2.6 °C -3.7 °C 1025.3 hPa SSW 5.6 km/h 1.3 km/h 92% 0 mm 5.00 W/m2
16:10 -2.6 °C -3.7 °C 1025.3 hPa SW 5.6 km/h 2.1 km/h 92% 0 mm 0.00 W/m2
16:14 -2.6 °C -3.7 °C 1025.3 hPa SW 13 km/h 5 km/h 92% 0 mm 0.00 W/m2
16:19 -2.6 °C -3.7 °C 1025.6 hPa SW 9.3 km/h 6.3 km/h 92% 0 mm 0.00 W/m2
16:24 -2.7 °C -3.8 °C 1025.6 hPa SSW 9.3 km/h 4.2 km/h 92% 0 mm 0.00 W/m2
16:29 -2.6 °C -3.7 °C 1026 hPa SW 9.7 km/h 6.4 km/h 92% 0 mm 0.00 W/m2
16:34 -2.6 °C -3.7 °C 1026 hPa SSW 9.3 km/h 6.6 km/h 92% 0 mm 0.00 W/m2
16:39 -2.6 °C -3.8 °C 1026 hPa SSW 7.4 km/h 5.8 km/h 91% 0 mm 0.00 W/m2
16:44 -2.6 °C -3.9 °C 1026 hPa SW 12.9 km/h 9.7 km/h 91% 0 mm 0.00 W/m2
16:49 -2.6 °C -3.9 °C 1026 hPa WSW 14.8 km/h 4.5 km/h 91% 0 mm 0.00 W/m2
16:54 -2.6 °C -3.8 °C 1026 hPa SW 7.4 km/h 6.9 km/h 91% 0 mm 0.00 W/m2
16:59 -2.6 °C -3.8 °C 1026 hPa SSW 11.1 km/h 2.9 km/h 91% 0 mm 0.00 W/m2
17:04 -2.6 °C -3.9 °C 1025.6 hPa South 9.3 km/h 4.2 km/h 91% 0 mm 0.00 W/m2
17:09 -2.6 °C -3.9 °C 1025.6 hPa SW 8 km/h 3.1 km/h 91% 0 mm 0.00 W/m2
17:14 -2.6 °C -3.8 °C 1025.6 hPa WSW 6.4 km/h 5.1 km/h 91% 0 mm 0.00 W/m2
17:19 -2.6 °C -3.9 °C 1025.3 hPa SW 11.1 km/h 4.2 km/h 90% 0 mm 0.00 W/m2
17:24 -2.6 °C -3.9 °C 1025.3 hPa SSW 11.1 km/h 3.7 km/h 90% 0 mm 0.00 W/m2
17:29 -2.6 °C -3.9 °C 1024.9 hPa SW 7.4 km/h 2.1 km/h 90% 0 mm 0.00 W/m2
17:34 -2.5 °C -3.9 °C 1024.9 hPa SSW 3.7 km/h 1.3 km/h 90% 0 mm 0.00 W/m2
17:39 -2.5 °C -3.9 °C 1024.9 hPa SW 5.6 km/h 2.6 km/h 90% 0 mm 0.00 W/m2
17:44 -2.5 °C -3.9 °C 1024.9 hPa SW 3.7 km/h 1.8 km/h 90% 0 mm 0.00 W/m2
17:49 -2.5 °C -3.9 °C 1024.9 hPa SW 5.6 km/h 4.8 km/h 90% 0 mm 0.00 W/m2
17:54 -2.4 °C -3.8 °C 1024.9 hPa SSW 7.4 km/h 3.5 km/h 90% 0 mm 0.00 W/m2
17:59 -2.5 °C -3.9 °C 1024.9 hPa SSW 6.4 km/h 3.5 km/h 90% 0 mm 0.00 W/m2
18:04 -2.4 °C -3.8 °C 1024.9 hPa SSW 6.4 km/h 5 km/h 90% 0 mm 0.00 W/m2
18:09 -2.4 °C -3.8 °C 1024.9 hPa SW 9.7 km/h 4.2 km/h 90% 0 mm 0.00 W/m2
18:14 -2.4 °C -3.8 °C 1024.9 hPa SSW 8 km/h 2.3 km/h 90% 0 mm 0.00 W/m2
18:19 -2.4 °C -3.8 °C 1025.3 hPa South 14.8 km/h 10 km/h 90% 0 mm 0.00 W/m2
18:24 -2.4 °C -3.8 °C 1025.3 hPa South 13 km/h 6 km/h 90% 0 mm 0.00 W/m2
18:29 -2.4 °C -3.8 °C 1025.3 hPa South 7.4 km/h 8.2 km/h 90% 0 mm 0.00 W/m2
18:34 -2.4 °C -4 °C 1025.3 hPa SW 11.1 km/h 6.1 km/h 89% 0 mm 0.00 W/m2
18:39 -2.5 °C -4.1 °C 1025.3 hPa SW 13 km/h 8.2 km/h 89% 0 mm 0.00 W/m2
18:44 -2.5 °C -4.2 °C 1025.3 hPa SSW 13 km/h 8.2 km/h 88% 0 mm 0.00 W/m2
18:49 -2.6 °C -4.3 °C 1025.3 hPa South 13 km/h 7.7 km/h 88% 0 mm 0.00 W/m2
18:54 -2.6 °C -4.3 °C 1025.3 hPa WSW 11.1 km/h 7.7 km/h 88% 0 mm 0.00 W/m2
18:59 -2.6 °C -4.3 °C 1025.3 hPa SSW 11.1 km/h 6.8 km/h 88% 0 mm 0.00 W/m2
19:04 -2.7 °C -4.4 °C 1025.6 hPa SW 20.4 km/h 6.9 km/h 88% 0 mm 0.00 W/m2
19:09 -2.7 °C -4.6 °C 1025.3 hPa SW 20.4 km/h 11.7 km/h 87% 0 mm 0.00 W/m2
19:14 -2.7 °C -4.6 °C 1025.3 hPa WSW 20.9 km/h 11.7 km/h 87% 0 mm 0.00 W/m2
19:19 -2.8 °C -4.5 °C 1025.3 hPa WSW 16.7 km/h 10 km/h 88% 0 mm 0.00 W/m2
19:24 -2.8 °C -4.5 °C 1025.3 hPa SW 18.5 km/h 11.1 km/h 88% 0 mm 0.00 W/m2
19:29 -2.9 °C -4.6 °C 1024.9 hPa North 20.4 km/h 10.1 km/h 88% 0 mm 0.00 W/m2
19:34 -2.9 °C -4.8 °C 1024.9 hPa SW 18.5 km/h 12.9 km/h 87% 0 mm 0.00 W/m2
19:39 -3 °C -4.7 °C 1024.9 hPa WSW 18.5 km/h 14 km/h 88% 0 mm 0.00 W/m2
19:44 -3 °C -4.7 °C 1024.9 hPa WSW 14.8 km/h 8.5 km/h 88% 0 mm 0.00 W/m2
19:49 -3.1 °C -4.8 °C 1024.9 hPa SSW 14.8 km/h 9.8 km/h 88% 0 mm 0.00 W/m2
19:54 -3.1 °C -4.8 °C 1024.9 hPa WSW 16.7 km/h 10.6 km/h 88% 0 mm 0.00 W/m2
19:59 -3.2 °C -5 °C 1024.9 hPa North 19.3 km/h 13.2 km/h 87% 0 mm 0.00 W/m2
20:04 -3.2 °C -5.1 °C 1024.9 hPa SSW 13 km/h 7.9 km/h 87% 0 mm 0.00 W/m2
20:09 -3.2 °C -5.1 °C 1024.9 hPa SW 16.7 km/h 13 km/h 87% 0 mm 0.00 W/m2
20:14 -3.3 °C -5.1 °C 1024.9 hPa SW 18.5 km/h 9.7 km/h 87% 0 mm 0.00 W/m2
20:19 -3.3 °C -5.1 °C 1024.6 hPa SSW 13 km/h 4.3 km/h 87% 0 mm 0.00 W/m2
20:24 -3.3 °C -5.2 °C 1024.6 hPa SW 20.4 km/h 8.9 km/h 87% 0 mm 0.00 W/m2
20:29 -3.3 °C -5.2 °C 1024.3 hPa SSW 11.3 km/h 8.4 km/h 87% 0 mm 0.00 W/m2
20:34 -3.3 °C -5.2 °C 1023.9 hPa SSW 16.7 km/h 10.6 km/h 87% 0 mm 0.00 W/m2
20:39 -3.3 °C -5.2 °C 1024.3 hPa SSW 18.5 km/h 11.6 km/h 87% 0 mm 0.00 W/m2
20:44 -3.3 °C -5.2 °C 1024.3 hPa SW 18.5 km/h 13 km/h 87% 0 mm 0.00 W/m2
20:49 -3.4 °C -5.2 °C 1024.3 hPa WSW 18.5 km/h 13.4 km/h 87% 0 mm 0.00 W/m2
20:54 -3.4 °C -5.3 °C 1024.3 hPa SW 14.8 km/h 9.3 km/h 87% 0 mm 0.00 W/m2
20:59 -3.4 °C -5.3 °C 1024.3 hPa SSW 13 km/h 6.8 km/h 87% 0 mm 0.00 W/m2
21:04 -3.4 °C -5.3 °C 1023.9 hPa WSW 14.8 km/h 6.3 km/h 87% 0 mm 0.00 W/m2
21:09 -3.5 °C -5.3 °C 1023.9 hPa SW 18.5 km/h 10.9 km/h 87% 0 mm 0.00 W/m2
21:14 -3.5 °C -5.3 °C 1023.9 hPa SSW 16.7 km/h 6.3 km/h 87% 0 mm 0.00 W/m2
21:19 -3.5 °C -5.3 °C 1023.9 hPa WSW 11.1 km/h 8.5 km/h 87% 0 mm 0.00 W/m2
21:24 -3.5 °C -5.3 °C 1023.9 hPa WSW 18.5 km/h 12.7 km/h 87% 0 mm 0.00 W/m2
21:29 -3.6 °C -5.4 °C 1023.6 hPa West 27.8 km/h 13 km/h 87% 0 mm 0.00 W/m2
21:34 -3.6 °C -5.4 °C 1023.6 hPa SW 16.7 km/h 6 km/h 87% 0 mm 0.00 W/m2
21:39 -3.6 °C -5.4 °C 1023.6 hPa SW 14.8 km/h 6.6 km/h 87% 0 mm 0.00 W/m2
21:44 -3.6 °C -5.4 °C 1023.9 hPa North 16.7 km/h 8.7 km/h 87% 0 mm 0.00 W/m2
21:49 -3.6 °C -5.4 °C 1023.6 hPa SW 13 km/h 5 km/h 87% 0 mm 0.00 W/m2
21:54 -3.7 °C -5.5 °C 1023.9 hPa WSW 17.7 km/h 13.7 km/h 87% 0 mm 0.00 W/m2
21:59 -3.7 °C -5.7 °C 1023.9 hPa SSW 12.9 km/h 7.7 km/h 86% 0 mm 0.00 W/m2
22:04 -3.7 °C -5.7 °C 1023.9 hPa North 16.7 km/h 13.8 km/h 86% 0 mm 0.00 W/m2
22:09 -3.8 °C -5.8 °C 1023.9 hPa North 20.4 km/h 15 km/h 86% 0 mm 0.00 W/m2
22:14 -3.8 °C -5.8 °C 1023.6 hPa WSW 24.1 km/h 18.5 km/h 86% 0 mm 0.00 W/m2
22:19 -3.8 °C -5.8 °C 1023.6 hPa SW 14.8 km/h 11.3 km/h 86% 0 mm 0.00 W/m2
22:24 -3.9 °C -5.9 °C 1023.6 hPa SW 16.7 km/h 12.1 km/h 86% 0 mm 0.00 W/m2
22:29 -3.8 °C -5.8 °C 1023.6 hPa SW 16.7 km/h 10.3 km/h 86% 0 mm 0.00 W/m2
22:34 -3.9 °C -5.9 °C 1023.6 hPa North 18.5 km/h 14.8 km/h 86% 0 mm 0.00 W/m2
22:39 -3.9 °C -6.1 °C 1023.6 hPa SW 20.4 km/h 14.8 km/h 85% 0 mm 0.00 W/m2
22:44 -4 °C -6 °C 1023.6 hPa SSW 18.5 km/h 14 km/h 86% 0 mm 0.00 W/m2
22:49 -4.1 °C -6.2 °C 1023.6 hPa SW 24.1 km/h 9.8 km/h 85% 0 mm 0.00 W/m2
22:54 -4.1 °C -6.3 °C 1023.6 hPa South 19.3 km/h 11.3 km/h 85% 0 mm 0.00 W/m2
22:59 -4.2 °C -6.3 °C 1023.6 hPa SSW 20.4 km/h 10.9 km/h 85% 0 mm 0.00 W/m2
23:04 -4.2 °C -6.3 °C 1023.6 hPa SSW 25.9 km/h 12.1 km/h 85% 0 mm 0.00 W/m2
23:09 -4.2 °C -6.2 °C 1023.6 hPa SW 16.7 km/h 9.3 km/h 86% 0 mm 0.00 W/m2
23:14 -4.2 °C -6.4 °C 1023.6 hPa SW 20.4 km/h 11.6 km/h 85% 0 mm 0.00 W/m2
23:19 -4.3 °C -6.4 °C 1023.6 hPa WSW 27.8 km/h 12.6 km/h 85% 0 mm 0.00 W/m2
23:24 -4.4 °C -6.6 °C 1023.6 hPa WSW 22.2 km/h 16.1 km/h 85% 0 mm 0.00 W/m2
23:29 -4.4 °C -6.6 °C 1023.6 hPa WSW 18.5 km/h 13.8 km/h 85% 0 mm 0.00 W/m2
23:34 -4.4 °C -6.6 °C 1023.6 hPa SW 20.4 km/h 13 km/h 85% 0 mm 0.00 W/m2
23:39 -4.4 °C -6.6 °C 1023.6 hPa South 22.2 km/h 13.5 km/h 85% 0 mm 0.00 W/m2
23:44 -4.5 °C -6.7 °C 1023.6 hPa SW 27.8 km/h 17.2 km/h 85% 0 mm 0.00 W/m2
23:49 -4.5 °C -6.7 °C 1023.6 hPa SW 18.5 km/h 13.4 km/h 85% 0 mm 0.00 W/m2
23:54 -4.5 °C -6.7 °C 1023.6 hPa WSW 18.5 km/h 10.5 km/h 85% 0 mm 0.00 W/m2
23:59 -4.4 °C -6.4 °C 1023.6 hPa North 19.3 km/h 11.4 km/h 86% 0 mm 0.00 W/m2
Bourbonnais, Illinois, USA
Compliments of Weather Underground - 4 mb